Weather in Waterloo

Belgium     50°42′53″N   4°23′56″E
temp.,
°C
wind,
m/s
gust,
m/s
humid.,
%
clouds,
%
prec.,
mm/h
press.,
hPa
HPBL,
m
16 may, sun
sun1623:00+8sw512915 0.0 1002420
02:00+7sw613910 0.0 1003399
05:00+6sw512951 0.0 1002322
08:00+8sw611896 0.0 1003450
11:00+11ssw688194 0.2 1003889
14:00+11sw5981100 0.6 10021114
17:00+13wsw577355 0.9 10011131
20:00+12sw4784100 2.1 1000342
17 may, mon
mon1723:00+9ssw4993100 0.9 1001253
02:00+8sw51296100 1.0 1002403
05:00+9sw71394100 0.3 1002748
08:00+9ssw81491100 0.3 1003900
11:00+9sw91494100 3.4 1003958
14:00+13wsw71184100 4.4 10051220
17:00+13wsw698434 1.3 1006791
20:00+12wsw598496 3.1 1008555
18 may, tue
tue1823:00+9sw5129534 0.1 1009415
02:00+8sw6139634 0.1 1009437
05:00+8sw71397100 1.2 1010555
08:00+9wsw6119573 1.9 1011719
11:00+13w797174 0.3 10131349
14:00+13w5869100 1.4 10141434
17:00+14w577297 1.6 10151086
20:00+11w51087100 4.9 1016531
19 may, wed
wed1923:00+8wsw41194100 0.4 1018329
02:00+6sw4109653 0.4 1018260
05:00+5sw5119517 0.0 1018270
08:00+7sw599242 0.0 1018320
11:00+12wsw677223 0.2 10181137
14:00+12wsw6778100 1.8 1018917
17:00+13nw4679100 3.0 1018834
20:00+12nw368047 4.1 1019195
20 may, thu
thu2023:00+8wsw338923 0.0 102137
02:00+6sw37944 0.0 1022112
05:00+5sw47950 0.0 1022115
08:00+8sw47902 0.0 1022231
11:00+13wsw566828 0.0 10221066
14:00+16wsw675299 0.4 10211963
17:00+15wsw7866100 0.5 10211258
20:00+13sw4878100 1.1 1019390